Location: Arlington
(31.4185°N, 90.5568°W)
Time: 12:25:12
(UTC+00:00)

N. Korean satellite - Visible Passes

Search period start: 21 September 2021 00:00
Search period end: 01 October 2021 00:00
Orbit: 448 x 498 km, 97.3° (Epoch: 20 September)

Date Brightness Start Highest point End Pass type
(mag) Time Alt. Az. Time Alt. Az. Time Alt. Az.
21 Sep 10.2 10:13:39 10° E 10:14:12 10° E 10:14:44 10° ESE visible
22 Sep 6.5 11:16:14 10° N 11:19:48 84° W 11:23:22 10° SSW visible
23 Sep 8.3 10:48:45 10° NNE 10:52:02 35° E 10:55:21 10° SSE visible
24 Sep 9.8 10:22:09 10° ENE 10:24:12 15° E 10:26:14 10° SE visible
25 Sep 6.6 11:26:11 10° N 11:29:42 58° WNW 11:33:15 10° SSW visible
26 Sep 7.6 10:58:28 10° NNE 11:01:58 50° E 11:05:29 10° S visible
27 Sep 9.4 10:31:25 10° NE 10:34:08 20° E 10:36:51 10° SE visible
29 Sep 6.8 11:08:13 10° NNE 11:11:49 73° E 11:15:26 10° S visible
30 Sep 8.9 10:40:52 10° NE 10:44:01 27° E 10:47:09 10° SSE visible
